Regional Weather Roundup
Issued by NWS

Home | Current Version | Previous Version | Text Only | Print | Product List | Glossary Off
Versions: 1 2 3 4 5 6 7 8 9 10 11 12 13 14 15 16 17 18 19 20 21 22 23 24 25 26 27 28 29 30 31 32 33 34 35 36 37 38 39 40 41 42 43 44 45 46 47 48 49 50

000
ASUS43 KOAX 262110
RWRNE

WEATHER ROUNDUP FOR NEBRASKA
NATIONAL WEATHER SERVICE OMAHA NE
400 PM CDT TUE JUL 26 2016

NOTES: SATELLITE DATA IS BEING USED TO AUGMENT CLOUD COVER ABOVE
       12000 FEET.
       "FAIR" INDICATES FEW OR NO CLOUDS BELOW 12,000 FEET WITH NO
       SIGNIFICANT WEATHER AND/OR OBSTRUCTIONS TO VISIBILITY.

  * THESE STATIONS DO NOT REPORT WEATHER SUCH AS RAIN...SNOW OR FOG.

NEZ001>004-019>022-054>056-262200-
NEBRASKA PANHANDLE

CITY           SKY/WX    TMP DP  RH WIND       PRES   REMARKS
SCOTTSBLUFF    SUNNY     93  52  24 E6        30.00F HX  90
ALLIANCE       SUNNY     93  58  30 S10       29.99F HX  92
CHADRON        SUNNY     94  57  28 VRB5      29.97S HX  92
KIMBALL        CLOUDY    90  46  21 NW3       30.08S
SIDNEY         CLOUDY    94  53  25 SW15      30.04F HX  91
$$

NEZ057>060-069>072-079>082-262200-
SOUTHWEST NEBRASKA

CITY           SKY/WX    TMP DP  RH WIND       PRES   REMARKS
NORTH PLATTE   MOSUNNY   88  68  51 SE12      30.00F HX  91
IMPERIAL       SUNNY     92  62  36 S14       30.01F HX  92
LEXINGTON      SUNNY     86  65  49 SE7       30.04F
MCCOOK         SUNNY     93  66  40 SE14G24   30.00F HX  96
OGALLALA       SUNNY     92  61  35 S14       30.00F HX  92
$$

NEZ005>010-023>029-035>040-094-262200-
NORTH CENTRAL NEBRASKA

CITY           SKY/WX    TMP DP  RH WIND       PRES   REMARKS
VALENTINE      SUNNY     93  60  33 S17       29.96F HX  93
AINSWORTH      SUNNY     91  62  37 S16G22    29.98F HX  91
BROKEN BOW     SUNNY     85  64  49 SE16G23   30.03F
O`NEILL        SUNNY     90  55  30 S15       29.99F
ORD            SUNNY     87  64  46 S14       30.01F
THEDFORD       SUNNY     90  66  45 S16G22    30.01F HX  93
$$

NEZ041-046>049-061>064-073>077-083>087-262200-
SOUTH CENTRAL NEBRASKA

CITY           SKY/WX    TMP DP  RH WIND       PRES   REMARKS
GRAND ISLAND   SUNNY     87  65  47 SE9       30.04F
AURORA         SUNNY     86  66  51 SE6       30.04F
HASTINGS       SUNNY     88  65  46 SE12      30.03F HX  90
HEBRON         SUNNY     89  61  38 SE7       30.01F
HOLDREGE       SUNNY     86  63  45 S13       30.03F
KEARNEY *      SUNNY     88  63  42 S13       30.04F
YORK           SUNNY     84  66  54 S8        30.03F
$$

NEZ011>018-030>034-042>045-262200-
NORTHEAST NEBRASKA

CITY           SKY/WX    TMP DP  RH WIND       PRES   REMARKS
NORFOLK        SUNNY     86  65  49 S10       30.02F
ALBION         SUNNY     85  63  48 S10       30.02F
BLAIR          SUNNY     85  65  52 E8        30.03F
FREMONT        SUNNY     85  64  50 S5        30.04S
TEKAMAH        SUNNY     87  62  43 S9        30.02F
WAYNE          SUNNY     84  70  62 S12       30.03F
$$

NEZ050>053-065>068-078-088>093-262200-
SOUTHEAST NEBRASKA

CITY           SKY/WX    TMP DP  RH WIND       PRES   REMARKS
LINCOLN        SUNNY     88  64  44 E12       30.02F
OMAHA EPPLEY   PTSUNNY   86  64  47 E8        30.02F
BEATRICE       SUNNY     88  62  41 SE7       30.01F
FALLS CITY     SUNNY     86  68  54 SE6       30.00F
NEBRASKA CITY  SUNNY     83  62  47 CALM      30.03F
PLATTSMOUTH    SUNNY     85  64  48 E5        30.03F
$$

NEZ044-045-051>053-067-262200-
OMAHA AREA

CITY           SKY/WX    TMP DP  RH WIND       PRES   REMARKS
OMAHA EPPLEY   PTSUNNY   86  64  47 E8        30.02F
BLAIR          SUNNY     85  65  52 E8        30.03F
FREMONT        SUNNY     85  64  50 S5        30.04S
MILLARD        SUNNY     86  64  47 SE6       30.02F
PLATTSMOUTH    SUNNY     85  64  48 E5        30.03F
WAHOO          FAIR      85  64  48 SE7       30.03F
$$




USA.gov is the U.S. government's official web portal to all federal, state and local government web resources and services.